Location: PSU-Greenbush Astrophysical Observatory
(37.5140°N, 94.9880°W)
Time: 09:21:34
(UTC-06:00)

Altair - Pass Details

Date: 01 February 2020
Orbit: 1502 x 1682 km, 47.2° (Epoch: 25 February)

Event Time Altitude Azimuth Distance (km) Brightness Sun altitude
Rises 10:55:33 0° 292° (WNW) 4,912 9.7 30.7°
Reaches altitude 10° 10:58:51 10° 297° (WNW) 3,936 9.3 31.0°
Maximum altitude 11:08:46 54° 14° (NNE) 1,973 8.2 31.9°
Drops below altitude 10° 11:18:37 10° 91° (E) 3,915 10.0 32.6°
Sets 11:21:52 0° 96° (E) 4,885 10.4 32.8°
